Regional Weather Roundup
Issued by NWS Portland, ME

Current Version | Previous Version | Text Only | Print | Product List | Glossary On
Versions: 1 2 3 4 5 6 7 8 9 10 11 12 13 14 15 16 17 18 19 20 21 22 23 24 25 26 27 28 29 30 31 32 33 34 35 36 37 38 39 40 41 42 43 44 45 46 47 48 49 50
000 ASUS41 KGYX 280310 RWRGYX WEATHER ROUNDUP FOR MAINE AND NEW HAMPSHIRE NATIONAL WEATHER SERVICE GRAY ME 1100 PM EDT FRI MAY 27 2016 MEZ002-005-006-010-012-015-018-020-021-024-026-027-029-280400- MAINE CITY SKY/WX TMP DP RH WIND PRES REMARKS PORTLAND CLOUDY 53 52 96 CALM 30.03S FOG SANFORD CLEAR 54 48 82 CALM 30.03S BAR HARBOR FOG 51 51 100 SW5 30.03F VSB 1/2 WISCASSET CLOUDY 53 51 93 CALM 30.05R ROCKLAND CLOUDY 51 51 100 CALM 30.03S FOG FRYEBURG CLEAR 61 57 87 SE3 30.01S LEWISTONAUBURN CLEAR 54 48 82 S6 30.03R AUGUSTA CLOUDY 53 52 96 S5 30.02F WATERVILLE CLOUDY 53 52 96 CALM 29.99F BANGOR N/A 55 51 86 W5 30.05R FOG GREENVILLE N/A 53 52 96 E5 29.99F MILLINOCKET CLOUDY 54 53 97 VRB3 30.02R HOULTON CLOUDY 54 52 93 S5 29.98F PRESQUE ISLE PTCLDY 52 51 97 S6 29.97F FRENCHVILLE CLEAR 53 51 93 S7 29.94F CARIBOU CLEAR 52 50 93 S6 29.95F $$ NHZ002-005-008-009-011-012-014-280400- NEW HAMPSHIRE CITY SKY/WX TMP DP RH WIND PRES REMARKS PORTSMOUTH MOCLDY 54 53 96 S2 30.01S FOG ROCHESTER CLOUDY 59 54 83 CALM 30.01F NASHUA CLOUDY 73 65 75 CALM 30.01F MANCHESTER CLOUDY 70 60 70 CALM 30.00F CONCORD PTCLDY 67 59 75 S5 30.01S LACONIA PTCLDY 64 62 93 CALM 30.02F PLYMOUTH FAIR 64 63 94 CALM 30.01S BERLIN CLOUDY 67 59 75 CALM 30.00R WHITEFIELD PTCLDY 67 60 78 CALM 30.00R JAFFREY PTCLDY 72 63 73 S5 30.06S KEENE CLOUDY N/A N/A N/A CALM 30.04S LEBANON PTCLDY 75 66 73 S7 29.99R MT WASHINGTON FOG 54 54 100 W40G47 N/A VSB 0 $$ VTZ005-007-008-280400- VERMONT CITY SKY/WX TMP DP RH WIND PRES REMARKS ST JOHNSBURY N/A 74 63 68 MISG 29.96R MONTPELIER FAIR 77 62 59 VRB3 30.03S BURLINGTON FAIR 78 63 59 SW3 29.96R $$ MAZ007-012-024-CTZ003-RIZ002-NYZ038-NYZ072-280400- SOUTHERN NEW ENGLAND AND NY CITY SKY/WX TMP DP RH WIND PRES REMARKS BOSTON PTCLDY 71 62 73 SW12 30.03F WORCESTER CLEAR 70 60 70 SW14 30.07S NANTUCKET CLEAR 59 56 89 SW9 30.12S PROVIDENCE MOCLDY 68 57 68 SW8 30.08S HARTFORD MOCLDY 72 62 71 S9 30.04R ALBANY PTCLDY 76 67 73 S7 30.00S NEW YORK CITY MOCLDY 75 67 76 S12 30.04S $$ ANZ081-ANZ082-ANZ150-NHZ014-MEZ023>029-280400- COASTAL MARINE OBSERVATIONS STATION/POSITION TIME TEMP WIND PRES WAVE AIR SEA DIR/SP/G HT/PER (UTC) (F) (DEG/KT/KT) (MB) (FT/S) MOUNT DESERT ROC 0300 49 160/ 4/ 5 1017.1F MATINICUS ROCK 0200 50 160/ 8/ 9 1016.4F ISLE OF SHOALS 0200 52 30/ 4/ 5 1016.7R JEFFREYS LEDGE 0208 53 N/A 2/ 4 CASHES LEDGE BUO 0250 55 52 200/ 8/ 8 1016.3F 3/ 4 GEORGES BANK BUO 0250 56 53 1021.2F 2/ 7 $$ .............KEY.............. WCI - WIND CHILL TC - TEMPERATURE IN CELSIUS VSB - VISIBILITY IN MILES HX - HEAT INDEX FAIR- INDICATES FEW OR NO CLOUDS BELOW 12,000 FT, WITH NO SIGNIFICANT WEATHER AND/OR OBSTRUCTIONS TO VISIBILITY.

USA.gov is the U.S. government's official web portal to all federal, state and local government web resources and services.